Weather reports worldwide

Advertisment
Loch Glascarnoch, United Kingdom (3031): temperature & dewpoint: 06.11.2019 15:00:00 - 12.11.2019 15:00:00 (GMT)Loch Glascarnoch, United Kingdom (3031): temperature -20cm & temperature -100cm: 06.11.2019 15:00:00 - 12.11.2019 15:00:00 (GMT)Loch Glascarnoch, United Kingdom (3031): wind speed & gusts: 06.11.2019 15:00:00 - 12.11.2019 15:00:00 (GMT)Loch Glascarnoch, United Kingdom (3031): wind direction: 06.11.2019 15:00:00 - 12.11.2019 15:00:00 (GMT)Loch Glascarnoch, United Kingdom (3031): reduced air pressure: 06.11.2019 15:00:00 - 12.11.2019 15:00:00 (GMT)Loch Glascarnoch, United Kingdom (3031): visibility: 06.11.2019 15:00:00 - 12.11.2019 15:00:00 (GMT)Loch Glascarnoch, United Kingdom (3031): sunshine duration: 06.11.2019 15:00:00 - 12.11.2019 15:00:00 (GMT)Loch Glascarnoch, United Kingdom (3031): precipitation: 06.11.2019 15:00:00 - 12.11.2019 15:00:00 (GMT)
Date & Time tt [°C] td [°C] tt -20cm [°C] tt -100cm [°C] ff [km/h] ff [kn] fx [km/h] fx [kn] dd ppp [hPa] vv [km] sd [min] rr [mm]
12.11.2019 15:00:00 3,7 1,3 - - 11 6 - - WNW 999,8 45 54 0,0
12.11.2019 14:00:00 4,0 0,7 - - 11 6 - - NW 999,5 45 30 0,0
12.11.2019 13:00:00 4,0 1,0 - - 11 6 - - N 999,1 45 0 0,0
12.11.2019 12:00:00 4,4 1,7 - - 11 6 - - NW 998,8 50 0 0,0
12.11.2019 11:00:00 4,2 2,6 - - 13 7 - - WNW 998,4 13 0 0,0
12.11.2019 10:00:00 4,4 2,7 - - 13 7 - - NNW 997,7 26 0 0,0
12.11.2019 09:00:00 4,2 2,6 4,5 5,7 15 8 - - N 997,0 16 0 0,4
12.11.2019 08:00:00 4,5 2,9 - - 22 12 - - NNE 996,0 25 0 0,0
12.11.2019 07:00:00 4,7 3,0 - - 18 10 - - NNE 995,2 15 0 0,6
12.11.2019 06:00:00 4,8 3,3 - - 16 9 - - NNE 994,5 9 0 0,2
12.11.2019 05:00:00 5,0 3,4 - - 18 10 - - NNE 993,6 22 0 0,0
12.11.2019 04:00:00 4,3 2,8 - - 13 7 - - N 992,9 50 0 1,0
12.11.2019 03:00:00 4,3 2,7 - - 15 8 - - N 992,2 13 0 2,0
12.11.2019 02:00:00 4,0 2,5 - - 9 5 - - N 991,9 16 0 1,2
12.11.2019 01:00:00 3,5 2,7 - - 11 6 - - NNW 991,3 30 0 0,0
12.11.2019 00:00:00 3,0 2,5 - - 8 4 - - NW 991,5 45 - 0,0
11.11.2019 23:00:00 2,8 2,3 - - 13 7 - - NW 991,2 50 0 0,0
11.11.2019 22:00:00 1,9 1,1 - - 5 3 - - NNW 990,8 50 0 0,0
11.11.2019 21:00:00 2,7 2,4 - - 9 5 - - WNW 990,6 50 0 0,0
11.11.2019 20:00:00 2,3 1,9 - - 11 6 - - WNW 990,6 21 0 0,2
11.11.2019 19:00:00 2,5 2,0 - - 18 10 - - WNW 990,3 11 0 0,2
11.11.2019 18:00:00 2,3 1,7 - - 16 9 - - WNW 990,5 7 0 0,2
11.11.2019 17:00:00 2,1 1,6 - - 15 8 - - WNW 990,5 11 0 0,0
11.11.2019 16:00:00 2,0 1,5 - - 21 11 - - WNW 990,5 6 0 0,2
11.11.2019 15:00:00 2,1 1,4 - - 16 9 - - WNW 990,4 10 0 0,0
11.11.2019 14:00:00 2,3 1,4 - - 15 8 - - WNW 990,6 30 0 0,2
11.11.2019 13:00:00 2,4 1,5 - - 11 6 - - WNW 990,8 30 0 0,4
11.11.2019 12:00:00 2,5 1,4 - - 5 3 - - WNW 991,0 19 0 0,2
11.11.2019 11:00:00 2,5 1,3 - - 5 3 - - WNW 991,1 50 0 0,0
11.11.2019 10:00:00 1,5 0,6 - - 5 3 - - W 991,0 50 0 0,0
11.11.2019 09:00:00 1,3 0,2 4,2 5,9 2 1 - - SSW 990,9 50 0 0,0
11.11.2019 08:00:00 1,8 0,2 - - 5 3 - - E 990,5 50 0 0,0
11.11.2019 07:00:00 1,4 0,1 - - 11 6 - - ESE 990,4 50 0 0,0
11.11.2019 06:00:00 1,5 0,2 - - 18 10 - - ESE 990,4 40 0 0,0
11.11.2019 05:00:00 1,1 0,3 - - 18 10 - - ESE 991,4 35 0 0,4
11.11.2019 04:00:00 1,3 0,2 - - 16 9 - - ESE 992,3 35 0 0,8
11.11.2019 03:00:00 1,1 0,0 - - 15 8 - - ESE 993,7 30 0 0,6
11.11.2019 02:00:00 1,1 -0,1 - - 18 10 - - ESE 995,0 45 0 0,8
11.11.2019 01:00:00 1,1 0,0 - - 26 14 - - E 996,3 35 0 0,4
11.11.2019 00:00:00 0,1 -0,2 - - 24 13 - - ESE 998,4 1,5 - 0,0
10.11.2019 23:00:00 0,1 -0,3 - - 22 12 - - ESE 1000,4 1,3 0 0,0
10.11.2019 22:00:00 0,5 -0,6 - - 22 12 - - ESE 1002,4 1,5 0 0,0
10.11.2019 21:00:00 2,0 -1,8 - - 22 12 - - SE 1003,9 50 0 0,0
10.11.2019 20:00:00 1,3 -2,0 - - 11 6 - - ESE 1006,1 45 0 0,0
10.11.2019 19:00:00 1,4 -2,5 - - 18 10 - - SE 1007,6 45 0 0,0
10.11.2019 18:00:00 1,2 -2,1 - - 16 9 - - ESE 1009,1 28 0 0,0
10.11.2019 17:00:00 1,6 -2,2 - - 16 9 - - ESE 1010,5 50 0 0,0
10.11.2019 16:00:00 1,1 -1,7 - - 15 8 - - ESE 1011,6 45 0 0,0
10.11.2019 15:00:00 1,5 -1,4 - - 15 8 - - ESE 1012,9 40 0 0,0
10.11.2019 14:00:00 2,3 -1,3 - - 11 6 - - ESE 1014,7 30 36 0,0
10.11.2019 13:00:00 3,1 -1,2 - - 16 9 - - E 1015,7 30 24 0,0
10.11.2019 12:00:00 2,8 -0,9 - - 13 7 - - E 1016,7 30 12 0,0
10.11.2019 11:00:00 2,4 -0,7 - - 11 6 - - ESE 1017,9 35 6 0,0
10.11.2019 10:00:00 0,7 -1,2 - - 5 3 - - E 1018,2 35 0 0,0
10.11.2019 09:00:00 -0,2 -1,9 4,7 6,2 4 2 - - W 1019,2 30 18 0,0
10.11.2019 08:00:00 -0,7 -2,5 - - 8 4 - - W 1019,5 40 0 0,0
10.11.2019 07:00:00 -1,9 -3,7 - - 13 7 - - W 1019,1 21 0 0,0
10.11.2019 06:00:00 -3,4 -5,4 - - 9 5 - - W 1019,1 40 0 0,0
10.11.2019 05:00:00 -3,7 -5,7 - - 5 3 - - WNW 1018,7 40 0 0,0
10.11.2019 04:00:00 -2,8 -4,2 - - 9 5 - - W 1018,5 40 0 0,0
10.11.2019 03:00:00 -2,8 -4,5 - - 4 2 - - W 1018,2 40 0 0,0
10.11.2019 02:00:00 -1,4 -3,5 - - 5 3 - - W 1017,6 40 0 0,0
10.11.2019 01:00:00 -2,0 -3,4 - - 8 4 - - NW 1017,3 45 0 0,0
10.11.2019 00:00:00 -1,9 -3,0 - - 5 3 - - WNW 1016,9 50 - 0,0
09.11.2019 23:00:00 -1,5 -3,0 - - 5 3 - - W 1016,4 50 0 0,0
09.11.2019 22:00:00 1,3 -0,9 - - 5 3 - - W 1015,1 17 0 0,0
09.11.2019 21:00:00 1,9 -0,8 - - 8 4 - - S 1014,1 50 0 0,0
09.11.2019 20:00:00 0,2 -1,7 - - 2 1 - - SW 1013,6 45 0 0,0
09.11.2019 19:00:00 1,5 -1,7 - - 9 5 - - SE 1012,6 50 0 0,0
09.11.2019 18:00:00 1,4 -1,2 - - 9 5 - - SE 1012,0 45 0 0,0
09.11.2019 17:00:00 1,8 -1,3 - - 13 7 - - SE 1011,0 50 0 0,0
09.11.2019 16:00:00 2,4 -1,3 - - 11 6 - - ESE 1010,0 50 0 0,0
09.11.2019 15:00:00 3,1 -1,2 - - 13 7 - - SE 1009,2 50 60 0,0
09.11.2019 14:00:00 3,4 -1,3 - - 15 8 - - SE 1008,5 45 60 0,0
09.11.2019 13:00:00 3,7 -1,4 - - 18 10 - - SE 1008,1 40 60 0,0
09.11.2019 12:00:00 3,1 -0,8 - - 16 9 - - SE 1007,9 45 54 0,0
09.11.2019 11:00:00 2,8 -1,4 - - 18 10 - - ESE 1007,8 45 18 0,0
09.11.2019 10:00:00 1,4 -1,9 - - 16 9 - - ESE 1007,9 40 0 0,0
09.11.2019 09:00:00 1,0 -2,0 5,0 6,5 18 10 - - ESE 1007,7 40 0 0,0
09.11.2019 08:00:00 0,0 -2,4 - - 15 8 - - SE 1008,3 50 0 0,0
09.11.2019 07:00:00 -1,0 -2,9 - - 15 8 - - ESE 1008,5 40 0 0,0
09.11.2019 06:00:00 -1,6 -3,2 - - 13 7 - - ESE 1008,6 45 0 0,0
09.11.2019 05:00:00 -1,1 -3,3 - - 16 9 - - ESE 1008,9 50 0 0,0
09.11.2019 04:00:00 -1,8 -3,7 - - 13 7 - - ESE 1009,2 45 0 0,0
09.11.2019 03:00:00 -0,8 -3,2 - - 15 8 - - ESE 1009,3 50 0 0,0
09.11.2019 02:00:00 -1,0 -3,6 - - 15 8 - - E 1010,0 40 0 0,0
09.11.2019 01:00:00 -0,5 -2,9 - - 16 9 - - ESE 1010,8 45 0 0,0
09.11.2019 00:00:00 -0,6 -2,7 - - 16 9 - - ESE 1012,2 40 - 0,0
08.11.2019 23:00:00 -1,8 -2,8 - - 9 5 - - ENE 1012,8 50 0 0,0
08.11.2019 22:00:00 -2,0 -2,7 - - 9 5 - - E 1013,4 40 0 0,0
08.11.2019 21:00:00 -1,4 -1,6 - - 15 8 - - ESE 1013,8 40 0 0,0
08.11.2019 20:00:00 -3,4 -4,4 - - 4 2 - - NE 1014,6 45 0 0,0
08.11.2019 19:00:00 -2,3 -3,2 - - 4 2 - - W 1014,7 50 0 0,0
08.11.2019 18:00:00 -0,9 -1,9 - - 11 6 - - E 1014,9 50 0 0,0
08.11.2019 17:00:00 -0,6 -1,7 - - 8 4 - - E 1015,1 45 0 0,0
08.11.2019 16:00:00 0,9 -1,0 - - 5 3 - - E 1014,8 45 6 0,0
08.11.2019 15:00:00 2,8 -0,6 - - 9 5 - - SE 1014,3 50 42 0,0
08.11.2019 14:00:00 4,4 -0,6 - - 11 6 - - ESE 1014,4 50 54 0,0
08.11.2019 13:00:00 4,2 -0,3 - - 11 6 - - E 1014,7 40 60 0,0
08.11.2019 12:00:00 4,1 -1,2 - - 4 2 - - SE 1015,0 45 48 0,0
08.11.2019 11:00:00 1,7 -1,3 - - 8 4 - - NW 1015,8 50 60 0,2
08.11.2019 10:00:00 1,5 -1,3 - - 5 3 - - WSW 1015,6 45 60 0,0
08.11.2019 09:00:00 -0,9 -2,2 5,7 6,7 4 2 - - E 1015,5 45 12 0,0
08.11.2019 08:00:00 -1,8 -3,7 - - 13 7 - - W 1015,4 40 0 0,0
08.11.2019 07:00:00 -1,9 -3,4 - - 11 6 - - WNW 1015,0 35 0 0,0
08.11.2019 06:00:00 -2,5 -3,9 - - 9 5 - - WNW 1014,8 45 0 0,0
08.11.2019 05:00:00 -3,2 -4,8 - - 8 4 - - W 1014,8 35 0 0,0
08.11.2019 04:00:00 -2,7 -4,3 - - 8 4 - - W 1014,6 45 0 0,0
08.11.2019 03:00:00 -2,2 -4,4 - - 5 3 - - NNW 1014,2 40 0 0,0
08.11.2019 02:00:00 -1,4 -3,4 - - 8 4 - - N 1014,3 40 0 0,0
08.11.2019 01:00:00 -1,1 -2,7 - - 5 3 - - NNW 1013,8 40 0 0,0
08.11.2019 00:00:00 -0,8 -3,0 - - 5 3 - - WNW 1013,5 28 - 0,0
07.11.2019 23:00:00 1,9 -0,8 - - 5 3 - - W 1012,8 45 0 0,0
07.11.2019 22:00:00 1,7 -2,2 - - 4 2 - - WSW 1012,7 45 0 0,0
07.11.2019 21:00:00 2,6 -1,7 - - 15 8 - - NNW 1012,0 40 0 0,0
07.11.2019 20:00:00 2,6 -0,7 - - 24 13 - - NE 1010,9 50 0 0,0
07.11.2019 19:00:00 3,0 -0,6 - - 29 16 48 26 ENE 1010,3 45 0 0,0
07.11.2019 18:00:00 2,8 -0,6 - - 31 17 46 25 NE 1009,7 45 0 0,0
07.11.2019 17:00:00 2,9 -1,0 - - 29 16 50 27 ENE 1008,5 35 0 0,0
07.11.2019 16:00:00 3,5 -0,7 - - 29 16 52 28 ENE 1007,4 35 0 0,0
07.11.2019 15:00:00 3,9 0,2 - - 31 17 46 25 ENE 1006,9 50 0 0,0
07.11.2019 14:00:00 4,3 0,7 - - 22 12 46 25 ENE 1006,0 35 0 0,0
07.11.2019 13:00:00 4,0 0,2 - - 28 15 - - ENE 1005,2 50 0 0,0
07.11.2019 12:00:00 4,0 1,0 - - 31 17 46 25 ENE 1004,6 45 0 0,0
07.11.2019 11:00:00 3,8 1,4 - - 31 17 55 30 ENE 1004,0 40 0 0,0
07.11.2019 10:00:00 3,6 1,6 - - 35 19 54 29 ENE 1003,1 16 0 0,2
07.11.2019 09:00:00 2,8 1,5 5,7 7,0 18 10 50 27 E 1002,7 35 0 0,8
07.11.2019 08:00:00 2,6 1,0 - - 34 18 50 27 E 1002,0 12 0 0,2
07.11.2019 07:00:00 2,3 0,9 - - 21 11 - - ENE 1001,3 35 0 0,2
07.11.2019 06:00:00 2,7 1,0 - - 24 13 - - ENE 1000,3 13 0 0,2
07.11.2019 05:00:00 2,9 1,4 - - 21 11 - - E 1000,0 24 0 0,0
07.11.2019 04:00:00 2,6 0,8 - - 11 6 - - ESE 999,9 45 0 0,0
07.11.2019 03:00:00 2,3 0,9 - - 16 9 - - E 999,9 20 0 0,0
07.11.2019 02:00:00 2,4 0,8 - - 18 10 - - E 999,7 17 0 0,0
07.11.2019 01:00:00 2,0 0,5 - - 15 8 - - E 999,8 11 0 0,0
07.11.2019 00:00:00 2,4 0,8 - - 11 6 - - ESE 999,7 50 - 0,0
06.11.2019 23:00:00 2,1 0,0 - - 8 4 - - SE 1000,1 50 0 0,0
06.11.2019 22:00:00 2,1 -0,5 - - 4 2 - - SSW 1000,2 45 0 0,0
06.11.2019 21:00:00 1,8 -0,2 - - 4 2 - - W 1000,3 50 0 0,0
06.11.2019 20:00:00 1,2 0,2 - - 4 2 - - E 1000,6 50 0 0,0
06.11.2019 19:00:00 -1,0 -2,1 - - 2 1 - - N 1000,9 50 0 0,0
06.11.2019 18:00:00 -1,1 -2,3 - - 2 1 - - W 1001,3 50 0 0,0
06.11.2019 17:00:00 0,7 -0,7 - - 8 4 - - ESE 1001,2 45 0 0,0
06.11.2019 16:00:00 2,2 -0,1 - - 9 5 - - ESE 1001,3 50 18 0,0
06.11.2019 15:00:00 4,3 0,8 - - 5 3 - - WSW 1001,4 40 42 0,0

tt = temperature
td = dewpoint
tt -20cm = temperature -20cm
tt -100cm = temperature -100cm
ff = wind speed
fx = gusts
dd = wind direction
ppp = reduced air pressure
vv = visibility
sd = sunshine duration
rr = precipitation

Next stations